This demonstration page uses our WeatherBlox Daily Observations layout. Learn more.

Left ArrowRight Arrow

40.97296, -117.73568

Hourly Observations for January 28, 2022

Temp ( °F °C ) Dew Point ( °F °C ) Humidity (%) Winds ( mph kmh ) Pressure ( in mb ) Visibility ( mi km ) Precip ( " mm )
12:56 am 00:56 Clear 28 -2.2 18 -7.8 66 66 ENE 14 22 30.54 1034 10 16 0.00 0.00
1:56 am 01:56 Clear 27 -2.8 17 -8.3 66 66 ENE 15 24 30.55 1035 10 16 0.00 0.00
2:56 am 02:56 Clear 25 -3.9 16 -8.9 69 69 E 10 17 30.55 1035 10 16 0.00 0.00
3:56 am 03:56 Clear 24 -4.4 16 -8.9 71 71 E 7 11 30.56 1035 10 16 0.00 0.00
4:56 am 04:56 Clear 19 -7.2 12 -11.1 74 74 ESE 7 11 30.60 1036 10 16 0.00 0.00
5:56 am 05:56 Clear 17 -8.3 12 -11.1 80 80 Calm 30.63 1037 10 16 0.00 0.00
6:56 am 06:56 Clear 14 -10 9 -12.8 80 80 SE 6 9 30.66 1038 10 16 0.00 0.00
7:56 am 07:56 Sunny 24 -4.4 15 -9.4 68 68 ESE 3 6 30.63 1037 10 16 0.00 0.00
8:56 am 08:56 Sunny 27 -2.8 16 -8.9 63 63 ESE 5 7 30.63 1037 10 16 0.00 0.00
9:56 am 09:56 Sunny 34 1.1 15 -9.4 46 46 ENE 10 17 30.60 1036 10 16 0.00 0.00
10:56 am 10:56 Sunny 39 3.9 17 -8.3 41 41 ENE 12 19 30.57 1035 10 16 0.00 0.00
11:56 am 11:56 Sunny 44 6.7 14 -10 30 30 NE 14 22 30.52 1034 10 16 0.00 0.00
12:56 pm 12:56 Sunny 47 8.3 15 -9.4 28 28 NE 10 17 30.47 1032 10 16 0.00 0.00
1:56 pm 13:56 Sunny 48 8.9 15 -9.4 27 27 ENE 9 15 30.43 1031 10 16 0.00 0.00
2:56 pm 14:56 Sunny 49 9.4 15 -9.4 26 26 NE 12 19 30.42 1030 10 16 0.00 0.00
3:56 pm 15:56 Sunny 46 7.8 15 -9.4 29 29 NE 17 28 30.41 1030 10 16 0.00 0.00
4:56 pm 16:56 Sunny 42 5.6 15 -9.4 33 33 NE 14 22 30.42 1030 10 16 0.00 0.00
5:56 pm 17:56 Clear 39 3.9 14 -10 36 36 NE 9 15 30.45 1031 10 16 0.00 0.00
6:56 pm 18:56 Clear 35 1.7 15 -9.4 44 44 ENE 7 11 30.47 1032 10 16 0.00 0.00
7:56 pm 19:56 Clear 25 -3.9 14 -10 63 63 S 5 7 30.46 1032 10 16 0.00 0.00
8:56 pm 20:56 Clear 26 -3.3 16 -8.9 66 66 SE 5 7 30.45 1031 10 16 0.00 0.00
9:56 pm 21:56 Clear 20 -6.7 14 -10 78 78 SSE 6 9 30.45 1031 10 16 0.00 0.00
10:56 pm 22:56 Clear 21 -6.1 15 -9.4 78 78 Calm 30.43 1030 10 16 0.00 0.00
11:56 pm 23:56 Clear 18 -7.8 13 -10.6 81 81 Calm 30.43 1030 10 16 0.00 0.00

Powered by AerisWeather